Year,Month,Day,Hour,Minute,Value (Times are PST for temperature in C)
2018,05,24,00,00,13.00
2018,05,24,00,01,13.00
2018,05,24,00,02,13.00
2018,05,24,00,03,13.00
2018,05,24,00,04,12.90
2018,05,24,00,05,12.90
2018,05,24,00,06,12.90
2018,05,24,00,07,12.90
2018,05,24,00,08,12.90
2018,05,24,00,09,12.90
2018,05,24,00,10,12.90
2018,05,24,00,11,12.90
2018,05,24,00,12,12.80
2018,05,24,00,13,12.90
2018,05,24,00,14,12.80
2018,05,24,00,15,12.80
2018,05,24,00,16,12.80
2018,05,24,00,17,12.80
2018,05,24,00,18,12.80
2018,05,24,00,19,12.80
2018,05,24,00,20,12.80
2018,05,24,00,21,12.80
2018,05,24,00,22,12.80
2018,05,24,00,23,12.80
2018,05,24,00,24,12.80
2018,05,24,00,25,12.70
2018,05,24,00,26,12.70
2018,05,24,00,27,12.70
2018,05,24,00,28,12.70
2018,05,24,00,29,12.70
2018,05,24,00,30,12.70
2018,05,24,00,31,12.70
2018,05,24,00,32,12.70
2018,05,24,00,33,12.70
2018,05,24,00,34,12.70
2018,05,24,00,35,12.70
2018,05,24,00,36,12.70
2018,05,24,00,37,12.70
2018,05,24,00,38,12.70
2018,05,24,00,39,12.70
2018,05,24,00,40,12.70
2018,05,24,00,41,12.70
2018,05,24,00,42,12.70
2018,05,24,00,43,12.70
2018,05,24,00,44,12.70
2018,05,24,00,45,12.60
2018,05,24,00,46,12.60
2018,05,24,00,47,12.60
2018,05,24,00,48,12.60
2018,05,24,00,49,12.60
2018,05,24,00,50,12.60
2018,05,24,00,51,12.60
2018,05,24,00,52,12.60
2018,05,24,00,53,12.60
2018,05,24,00,54,12.60
2018,05,24,00,55,12.60
2018,05,24,00,56,12.60
2018,05,24,00,57,12.60
2018,05,24,00,58,12.60
2018,05,24,00,59,12.60
2018,05,24,01,00,12.60
2018,05,24,01,01,12.60
2018,05,24,01,02,12.60
2018,05,24,01,03,12.60
2018,05,24,01,04,12.60
2018,05,24,01,05,12.60
2018,05,24,01,06,12.60
2018,05,24,01,07,12.60
2018,05,24,01,08,12.60
2018,05,24,01,09,12.60
2018,05,24,01,10,12.60
2018,05,24,01,11,12.60
2018,05,24,01,12,12.60
2018,05,24,01,13,12.60
2018,05,24,01,14,12.60
2018,05,24,01,15,12.60
2018,05,24,01,16,12.60
2018,05,24,01,17,12.50
2018,05,24,01,18,12.50
2018,05,24,01,19,12.50
2018,05,24,01,20,12.50
2018,05,24,01,21,12.50
2018,05,24,01,22,12.50
2018,05,24,01,23,12.50
2018,05,24,01,24,12.50
2018,05,24,01,25,12.50
2018,05,24,01,26,12.50
2018,05,24,01,27,12.50
2018,05,24,01,28,12.50
2018,05,24,01,29,12.50
2018,05,24,01,30,12.50
2018,05,24,01,31,12.50
2018,05,24,01,32,12.50
2018,05,24,01,33,12.40
2018,05,24,01,34,12.40
2018,05,24,01,35,12.50
2018,05,24,01,36,12.50
2018,05,24,01,37,12.50
2018,05,24,01,38,12.50
2018,05,24,01,39,12.40
2018,05,24,01,40,12.40
2018,05,24,01,41,12.40
2018,05,24,01,42,12.40
2018,05,24,01,43,12.50
2018,05,24,01,44,12.50
2018,05,24,01,45,12.40
2018,05,24,01,46,12.50
2018,05,24,01,47,12.50
2018,05,24,01,48,12.50
2018,05,24,01,49,12.50
2018,05,24,01,50,12.50
2018,05,24,01,51,12.40
2018,05,24,01,52,12.50
2018,05,24,01,53,12.50
2018,05,24,01,54,12.50
2018,05,24,01,55,12.50
2018,05,24,01,56,12.50
2018,05,24,01,57,12.50
2018,05,24,01,58,12.50
2018,05,24,01,59,12.50
2018,05,24,02,00,12.50
2018,05,24,02,01,12.50
2018,05,24,02,02,12.50
2018,05,24,02,03,12.50
2018,05,24,02,04,12.40
2018,05,24,02,05,12.40
2018,05,24,02,06,12.50
2018,05,24,02,07,12.40
2018,05,24,02,08,12.50
2018,05,24,02,09,12.40
2018,05,24,02,10,12.50
2018,05,24,02,11,12.40
2018,05,24,02,12,12.40
2018,05,24,02,13,12.40
2018,05,24,02,14,12.40
2018,05,24,02,15,12.40
2018,05,24,02,16,12.40
2018,05,24,02,17,12.40
2018,05,24,02,18,12.40
2018,05,24,02,19,12.40
2018,05,24,02,20,12.40
2018,05,24,02,21,12.40
2018,05,24,02,22,12.40
2018,05,24,02,23,12.40
2018,05,24,02,24,12.40
2018,05,24,02,25,12.40
2018,05,24,02,26,12.40
2018,05,24,02,27,12.40
2018,05,24,02,28,12.40
2018,05,24,02,29,12.40
2018,05,24,02,30,12.40
2018,05,24,02,31,12.40
2018,05,24,02,32,12.40
2018,05,24,02,33,12.40
2018,05,24,02,34,12.40
2018,05,24,02,35,12.40
2018,05,24,02,36,12.40
2018,05,24,02,37,12.40
2018,05,24,02,38,12.40
2018,05,24,02,39,12.40
2018,05,24,02,40,12.40
2018,05,24,02,41,12.40
2018,05,24,02,42,12.40
2018,05,24,02,43,12.40
2018,05,24,02,44,12.40
2018,05,24,02,45,12.40
2018,05,24,02,46,12.40
2018,05,24,02,47,12.40
2018,05,24,02,48,12.40
2018,05,24,02,49,12.40
2018,05,24,02,50,12.40
2018,05,24,02,51,12.40
2018,05,24,02,52,12.30
2018,05,24,02,53,12.30
2018,05,24,02,54,12.30
2018,05,24,02,55,12.30
2018,05,24,02,56,12.30
2018,05,24,02,57,12.30
2018,05,24,02,58,12.30
2018,05,24,02,59,12.30
2018,05,24,03,00,12.30
2018,05,24,03,01,12.30
2018,05,24,03,02,12.30
2018,05,24,03,03,12.20
2018,05,24,03,04,12.20
2018,05,24,03,05,12.20
2018,05,24,03,06,12.20
2018,05,24,03,07,12.20
2018,05,24,03,08,12.20
2018,05,24,03,09,12.20
2018,05,24,03,10,12.20
2018,05,24,03,11,12.20
2018,05,24,03,12,12.20
2018,05,24,03,13,12.10
2018,05,24,03,14,12.10
2018,05,24,03,15,12.10
2018,05,24,03,16,12.10
2018,05,24,03,17,12.10
2018,05,24,03,18,12.10
2018,05,24,03,19,12.10
2018,05,24,03,20,12.10
2018,05,24,03,21,12.10
2018,05,24,03,22,12.10
2018,05,24,03,23,12.10
2018,05,24,03,24,12.10
2018,05,24,03,25,12.10
2018,05,24,03,26,12.10
2018,05,24,03,27,12.10
2018,05,24,03,28,12.10
2018,05,24,03,29,12.10
2018,05,24,03,30,12.10
2018,05,24,03,31,12.10
2018,05,24,03,32,12.10
2018,05,24,03,33,12.10
2018,05,24,03,34,12.10
2018,05,24,03,35,12.10
2018,05,24,03,36,12.10
2018,05,24,03,37,12.10
2018,05,24,03,38,12.10
2018,05,24,03,39,12.10
2018,05,24,03,40,12.10
2018,05,24,03,41,12.10
2018,05,24,03,42,12.10
2018,05,24,03,43,12.10
2018,05,24,03,44,12.10
2018,05,24,03,45,12.10
2018,05,24,03,46,12.10
2018,05,24,03,47,12.10
2018,05,24,03,48,12.10
2018,05,24,03,49,12.10
2018,05,24,03,50,12.10
2018,05,24,03,51,12.10
2018,05,24,03,52,12.10
2018,05,24,03,53,12.10
2018,05,24,03,54,12.10
2018,05,24,03,55,12.10
2018,05,24,03,56,12.10
2018,05,24,03,57,12.10
2018,05,24,03,58,12.10
2018,05,24,03,59,12.10
2018,05,24,04,00,12.10
2018,05,24,04,01,12.10
2018,05,24,04,02,12.00
2018,05,24,04,03,12.00
2018,05,24,04,04,12.00
2018,05,24,04,05,12.00
2018,05,24,04,06,12.00
2018,05,24,04,07,12.00
2018,05,24,04,08,12.00
2018,05,24,04,09,12.00
2018,05,24,04,10,12.00
2018,05,24,04,11,12.00
2018,05,24,04,12,12.00
2018,05,24,04,13,12.00
2018,05,24,04,14,12.00
2018,05,24,04,15,12.00
2018,05,24,04,16,12.00
2018,05,24,04,17,12.00
2018,05,24,04,18,12.00
2018,05,24,04,19,12.00
2018,05,24,04,20,12.00
2018,05,24,04,21,12.00
2018,05,24,04,22,12.00
2018,05,24,04,23,12.10
2018,05,24,04,24,12.00
2018,05,24,04,25,12.00
2018,05,24,04,26,12.00
2018,05,24,04,27,12.00
2018,05,24,04,28,12.00
2018,05,24,04,29,12.00
2018,05,24,04,30,12.00
2018,05,24,04,31,12.00
2018,05,24,04,32,12.00
2018,05,24,04,33,12.00
2018,05,24,04,34,12.00
2018,05,24,04,35,11.90
2018,05,24,04,36,11.90
2018,05,24,04,37,11.90
2018,05,24,04,38,11.90
2018,05,24,04,39,11.90
2018,05,24,04,40,11.90
2018,05,24,04,41,11.90
2018,05,24,04,42,11.90
2018,05,24,04,43,11.90
2018,05,24,04,44,11.90
2018,05,24,04,45,11.80
2018,05,24,04,46,11.80
2018,05,24,04,47,11.80
2018,05,24,04,48,11.80
2018,05,24,04,49,11.80
2018,05,24,04,50,11.80
2018,05,24,04,51,11.80
2018,05,24,04,52,11.80
2018,05,24,04,53,11.80
2018,05,24,04,54,11.80
2018,05,24,04,55,11.80
2018,05,24,04,56,11.80
2018,05,24,04,57,11.80
2018,05,24,04,58,11.80
2018,05,24,04,59,11.80
2018,05,24,05,00,11.80
2018,05,24,05,01,11.80
2018,05,24,05,02,11.80
2018,05,24,05,03,11.80
2018,05,24,05,04,11.80
2018,05,24,05,05,11.70
2018,05,24,05,06,11.80
2018,05,24,05,07,11.80
2018,05,24,05,08,11.70
2018,05,24,05,09,11.70
2018,05,24,05,10,11.70
2018,05,24,05,11,11.70
2018,05,24,05,12,11.70
2018,05,24,05,13,11.70
2018,05,24,05,14,11.70
2018,05,24,05,15,11.70
2018,05,24,05,16,11.70
2018,05,24,05,17,11.70
2018,05,24,05,18,11.70
2018,05,24,05,19,11.70
2018,05,24,05,20,11.70
2018,05,24,05,21,11.70
2018,05,24,05,22,11.70
2018,05,24,05,23,11.70
2018,05,24,05,24,11.70
2018,05,24,05,25,11.70
2018,05,24,05,26,11.70
2018,05,24,05,27,11.70
2018,05,24,05,28,11.70
2018,05,24,05,29,11.70
2018,05,24,05,30,11.70
2018,05,24,05,31,11.70
2018,05,24,05,32,11.60
2018,05,24,05,33,11.60
2018,05,24,05,34,11.60
2018,05,24,05,35,11.60
2018,05,24,05,36,11.60
2018,05,24,05,37,11.60
2018,05,24,05,38,11.60
2018,05,24,05,39,11.60
2018,05,24,05,40,11.60
2018,05,24,05,41,11.60
2018,05,24,05,42,11.60
2018,05,24,05,43,11.60
2018,05,24,05,44,11.60
2018,05,24,05,45,11.60
2018,05,24,05,46,11.60
2018,05,24,05,47,11.60
2018,05,24,05,48,11.60
2018,05,24,05,49,11.50
2018,05,24,05,50,11.50
2018,05,24,05,51,11.50
2018,05,24,05,52,11.50
2018,05,24,05,53,11.50
2018,05,24,05,54,11.50
2018,05,24,05,55,11.50
2018,05,24,05,56,11.50
2018,05,24,05,57,11.50
2018,05,24,05,58,11.50
2018,05,24,05,59,11.50
2018,05,24,06,00,11.50
2018,05,24,06,01,11.50
2018,05,24,06,02,11.50
2018,05,24,06,03,11.50
2018,05,24,06,04,11.50
2018,05,24,06,05,11.50
2018,05,24,06,06,11.40
2018,05,24,06,07,11.40
2018,05,24,06,08,11.40
2018,05,24,06,09,11.40
2018,05,24,06,10,11.40
2018,05,24,06,11,11.40
2018,05,24,06,12,11.40
2018,05,24,06,13,11.50
2018,05,24,06,14,11.50
2018,05,24,06,15,11.50
2018,05,24,06,16,11.50
2018,05,24,06,17,11.60
2018,05,24,06,18,11.60
2018,05,24,06,19,11.60
2018,05,24,06,20,11.60
2018,05,24,06,21,11.60
2018,05,24,06,22,11.60
2018,05,24,06,23,11.70
2018,05,24,06,24,11.70
2018,05,24,06,25,11.70
2018,05,24,06,26,11.80
2018,05,24,06,27,11.80
2018,05,24,06,28,11.80
2018,05,24,06,29,11.80
2018,05,24,06,30,11.90
2018,05,24,06,31,11.90
2018,05,24,06,32,11.90
2018,05,24,06,33,11.90
2018,05,24,06,34,11.90
2018,05,24,06,35,12.00
2018,05,24,06,36,12.00
2018,05,24,06,37,12.00
2018,05,24,06,38,12.10
2018,05,24,06,39,12.10
2018,05,24,06,40,12.10
2018,05,24,06,41,12.10
2018,05,24,06,42,12.10
2018,05,24,06,43,12.10
2018,05,24,06,44,12.20
2018,05,24,06,45,12.20
2018,05,24,06,46,12.20
2018,05,24,06,47,12.20
2018,05,24,06,48,12.20
2018,05,24,06,49,12.20
2018,05,24,06,50,12.20
2018,05,24,06,51,12.30
2018,05,24,06,52,12.30
2018,05,24,06,53,12.30
2018,05,24,06,54,12.30
2018,05,24,06,55,12.30
2018,05,24,06,56,12.30
2018,05,24,06,57,12.40
2018,05,24,06,58,12.40
2018,05,24,06,59,12.40
2018,05,24,07,00,12.40
2018,05,24,07,01,12.40
2018,05,24,07,02,12.50
2018,05,24,07,03,12.50
2018,05,24,07,04,12.50
2018,05,24,07,05,12.60
2018,05,24,07,06,12.60
2018,05,24,07,07,12.60
2018,05,24,07,08,12.60
2018,05,24,07,09,12.70
2018,05,24,07,10,12.70
2018,05,24,07,11,12.70
2018,05,24,07,12,12.80
2018,05,24,07,13,12.80
2018,05,24,07,14,12.80
2018,05,24,07,15,12.80
2018,05,24,07,16,12.80
2018,05,24,07,17,12.90
2018,05,24,07,18,12.90
2018,05,24,07,19,12.90
2018,05,24,07,20,12.90
2018,05,24,07,21,13.00
2018,05,24,07,22,13.00
2018,05,24,07,23,13.10
2018,05,24,07,24,13.10
2018,05,24,07,25,13.10
2018,05,24,07,26,13.10
2018,05,24,07,27,13.10
2018,05,24,07,28,13.20
2018,05,24,07,29,13.20
2018,05,24,07,30,13.20
2018,05,24,07,31,13.20
2018,05,24,07,32,13.20
2018,05,24,07,33,13.30
2018,05,24,07,34,13.30
2018,05,24,07,35,13.30
2018,05,24,07,36,13.30
2018,05,24,07,37,13.30
2018,05,24,07,38,13.30
2018,05,24,07,39,13.30
2018,05,24,07,40,13.30
2018,05,24,07,41,13.30
2018,05,24,07,42,13.40
2018,05,24,07,43,13.40
2018,05,24,07,44,13.40
2018,05,24,07,45,13.40
2018,05,24,07,46,13.40
2018,05,24,07,47,13.40
2018,05,24,07,48,13.40
2018,05,24,07,49,13.40
2018,05,24,07,50,13.50
2018,05,24,07,51,13.50
2018,05,24,07,52,13.50
2018,05,24,07,53,13.60
2018,05,24,07,54,13.60
2018,05,24,07,55,13.60
2018,05,24,07,56,13.60
2018,05,24,07,57,13.60
2018,05,24,07,58,13.70
2018,05,24,07,59,13.70
2018,05,24,08,00,13.70
2018,05,24,08,01,13.70
2018,05,24,08,02,13.70
2018,05,24,08,03,13.70
2018,05,24,08,04,13.70
2018,05,24,08,05,13.70
2018,05,24,08,06,13.70
2018,05,24,08,07,13.70
2018,05,24,08,08,13.70
2018,05,24,08,09,13.70
2018,05,24,08,10,13.80
2018,05,24,08,11,13.80
2018,05,24,08,12,13.80
2018,05,24,08,13,13.80
2018,05,24,08,14,13.80
2018,05,24,08,15,13.80
2018,05,24,08,16,13.90
2018,05,24,08,17,13.90
2018,05,24,08,18,13.90
2018,05,24,08,19,13.90
2018,05,24,08,20,13.90
2018,05,24,08,21,13.90
2018,05,24,08,22,14.00
2018,05,24,08,23,14.00
2018,05,24,08,24,14.00
2018,05,24,08,25,14.00
2018,05,24,08,26,14.10
2018,05,24,08,27,14.10
2018,05,24,08,28,14.20
2018,05,24,08,29,14.30
2018,05,24,08,30,14.30
2018,05,24,08,31,14.40
2018,05,24,08,32,14.50
2018,05,24,08,33,14.50
2018,05,24,08,34,14.60
2018,05,24,08,35,14.70
2018,05,24,08,36,14.80
2018,05,24,08,37,14.90
2018,05,24,08,38,15.00
2018,05,24,08,39,15.10
2018,05,24,08,40,15.10
2018,05,24,08,41,15.20
2018,05,24,08,42,15.20
2018,05,24,08,43,15.20
2018,05,24,08,44,15.20
2018,05,24,08,45,15.30
2018,05,24,08,46,15.30
2018,05,24,08,47,15.30
2018,05,24,08,48,15.30
2018,05,24,08,49,15.30
2018,05,24,08,50,15.30
2018,05,24,08,51,15.40
2018,05,24,08,52,15.40
2018,05,24,08,53,15.40
2018,05,24,08,54,15.40
2018,05,24,08,55,15.40
2018,05,24,08,56,15.50
2018,05,24,08,57,15.50
2018,05,24,08,58,15.60
2018,05,24,08,59,15.70
2018,05,24,09,00,15.80
2018,05,24,09,01,15.80
2018,05,24,09,02,15.80
2018,05,24,09,03,15.80
2018,05,24,09,04,15.80
2018,05,24,09,05,15.80
2018,05,24,09,06,15.70
2018,05,24,09,07,15.70
2018,05,24,09,08,15.70
2018,05,24,09,09,15.80
2018,05,24,09,10,15.80
2018,05,24,09,11,15.80
2018,05,24,09,12,15.90
2018,05,24,09,13,16.00
2018,05,24,09,14,16.10
2018,05,24,09,15,16.10
2018,05,24,09,16,16.20
2018,05,24,09,17,16.20
2018,05,24,09,18,16.30
2018,05,24,09,19,16.30
2018,05,24,09,20,16.40
2018,05,24,09,21,16.40
2018,05,24,09,22,16.40
2018,05,24,09,23,16.40
2018,05,24,09,24,16.40
2018,05,24,09,25,16.40
2018,05,24,09,26,16.40
2018,05,24,09,27,16.40
2018,05,24,09,28,16.40
2018,05,24,09,29,16.50
2018,05,24,09,30,16.60
2018,05,24,09,31,16.60
2018,05,24,09,32,16.70
2018,05,24,09,33,16.70
2018,05,24,09,34,16.80
2018,05,24,09,35,16.80
2018,05,24,09,36,16.80
2018,05,24,09,37,16.80
2018,05,24,09,38,16.90
2018,05,24,09,39,16.90
2018,05,24,09,40,16.90
2018,05,24,09,41,17.00
2018,05,24,09,42,17.10
2018,05,24,09,43,17.20
2018,05,24,09,44,17.30
2018,05,24,09,45,17.30
2018,05,24,09,46,17.30
2018,05,24,09,47,17.40
2018,05,24,09,48,17.40
2018,05,24,09,49,17.50
2018,05,24,09,50,17.60
2018,05,24,09,51,17.60
2018,05,24,09,52,17.70
2018,05,24,09,53,17.70
2018,05,24,09,54,17.80
2018,05,24,09,55,17.80
2018,05,24,09,56,17.90
2018,05,24,09,57,17.90
2018,05,24,09,58,17.90
2018,05,24,09,59,18.00
2018,05,24,10,00,18.00
2018,05,24,10,01,18.10
2018,05,24,10,02,18.10
2018,05,24,10,03,18.20
2018,05,24,10,04,18.20
2018,05,24,10,05,18.20
2018,05,24,10,06,18.20
2018,05,24,10,07,18.30
2018,05,24,10,08,18.40
2018,05,24,10,09,18.40
2018,05,24,10,10,18.50
2018,05,24,10,11,18.60
2018,05,24,10,12,18.60
2018,05,24,10,13,18.60
2018,05,24,10,14,18.60
2018,05,24,10,15,18.60
2018,05,24,10,16,18.70
2018,05,24,10,17,18.70
2018,05,24,10,18,18.70
2018,05,24,10,19,18.70
2018,05,24,10,20,18.70
2018,05,24,10,21,18.80
2018,05,24,10,22,18.80
2018,05,24,10,23,18.80
2018,05,24,10,24,18.90
2018,05,24,10,25,18.90
2018,05,24,10,26,18.90
2018,05,24,10,27,19.00
2018,05,24,10,28,19.00
2018,05,24,10,29,19.10
2018,05,24,10,30,19.10
2018,05,24,10,31,19.10
2018,05,24,10,32,19.20
2018,05,24,10,33,19.20
2018,05,24,10,34,19.20
2018,05,24,10,35,19.20
2018,05,24,10,36,19.20
2018,05,24,10,37,19.20
2018,05,24,10,38,19.20
2018,05,24,10,39,19.20
2018,05,24,10,40,19.20
2018,05,24,10,41,19.20
2018,05,24,10,42,19.20
2018,05,24,10,43,19.10
2018,05,24,10,44,19.10
2018,05,24,10,45,19.10
2018,05,24,10,46,19.00
2018,05,24,10,47,19.00
2018,05,24,10,48,19.00
2018,05,24,10,49,19.10
2018,05,24,10,50,19.10
2018,05,24,10,51,19.10
2018,05,24,10,52,19.10
2018,05,24,10,53,19.10
2018,05,24,10,54,19.10
2018,05,24,10,55,19.10
2018,05,24,10,56,19.10
2018,05,24,10,57,19.20
2018,05,24,10,58,19.20
2018,05,24,10,59,19.30
2018,05,24,11,00,19.40
2018,05,24,11,01,19.50
2018,05,24,11,02,19.50
2018,05,24,11,03,19.70
2018,05,24,11,04,19.70
2018,05,24,11,05,19.80
2018,05,24,11,06,19.90
2018,05,24,11,07,20.00
2018,05,24,11,08,20.10
2018,05,24,11,09,20.10
2018,05,24,11,10,20.20
2018,05,24,11,11,20.20
2018,05,24,11,12,20.20
2018,05,24,11,13,20.20
2018,05,24,11,14,20.20
2018,05,24,11,15,20.30
2018,05,24,11,16,20.30
2018,05,24,11,17,20.30
2018,05,24,11,18,20.40
2018,05,24,11,19,20.40
2018,05,24,11,20,20.50
2018,05,24,11,21,20.50
2018,05,24,11,22,20.60
2018,05,24,11,23,20.60
2018,05,24,11,24,20.50
2018,05,24,11,25,20.50
2018,05,24,11,26,20.40
2018,05,24,11,27,20.40
2018,05,24,11,28,20.40
2018,05,24,11,29,20.30
2018,05,24,11,30,20.40
2018,05,24,11,31,20.40
2018,05,24,11,32,20.50
2018,05,24,11,33,20.60
2018,05,24,11,34,20.60
2018,05,24,11,35,20.50
2018,05,24,11,36,20.50
2018,05,24,11,37,20.50
2018,05,24,11,38,20.60
2018,05,24,11,39,20.60
2018,05,24,11,40,20.60
2018,05,24,11,41,20.60
2018,05,24,11,42,20.50
2018,05,24,11,43,20.50
2018,05,24,11,44,20.40
2018,05,24,11,45,20.40
2018,05,24,11,46,20.30
2018,05,24,11,47,20.30
2018,05,24,11,48,20.30
2018,05,24,11,49,20.30
2018,05,24,11,50,20.40
2018,05,24,11,51,20.40
2018,05,24,11,52,20.40
2018,05,24,11,53,20.40
2018,05,24,11,54,20.40
2018,05,24,11,55,20.40
2018,05,24,11,56,20.50
2018,05,24,11,57,20.40
2018,05,24,11,58,20.50
2018,05,24,11,59,20.50
2018,05,24,12,00,20.50
2018,05,24,12,01,20.60
2018,05,24,12,02,20.60
2018,05,24,12,03,20.60
2018,05,24,12,04,20.60
2018,05,24,12,05,20.60
2018,05,24,12,06,20.70
2018,05,24,12,07,20.60
2018,05,24,12,08,20.50
2018,05,24,12,09,20.50
2018,05,24,12,10,20.50
2018,05,24,12,11,20.40
2018,05,24,12,12,20.40
2018,05,24,12,13,20.40
2018,05,24,12,14,20.40
2018,05,24,12,15,20.40
2018,05,24,12,16,20.40
2018,05,24,12,17,20.50
2018,05,24,12,18,20.60
2018,05,24,12,19,20.60
2018,05,24,12,20,20.50
2018,05,24,12,21,20.50
2018,05,24,12,22,20.50
2018,05,24,12,23,20.50
2018,05,24,12,24,20.50
2018,05,24,12,25,20.50
2018,05,24,12,26,20.50
2018,05,24,12,27,20.60
2018,05,24,12,28,20.60
2018,05,24,12,29,20.60
2018,05,24,12,30,20.70
2018,05,24,12,31,20.70
2018,05,24,12,32,20.80
2018,05,24,12,33,20.80
2018,05,24,12,34,20.80
2018,05,24,12,35,20.80
2018,05,24,12,36,20.80
2018,05,24,12,37,20.80
2018,05,24,12,38,20.80
2018,05,24,12,39,20.80
2018,05,24,12,40,20.80
2018,05,24,12,41,20.90
2018,05,24,12,42,20.90
2018,05,24,12,43,21.00
2018,05,24,12,44,21.10
2018,05,24,12,45,21.10
2018,05,24,12,46,21.10
2018,05,24,12,47,21.00
2018,05,24,12,48,21.00
2018,05,24,12,49,21.00
2018,05,24,12,50,21.00
2018,05,24,12,51,21.10
2018,05,24,12,52,21.10
2018,05,24,12,53,21.10
2018,05,24,12,54,21.10
2018,05,24,12,55,21.00
2018,05,24,12,56,20.90
2018,05,24,12,57,20.90
2018,05,24,12,58,20.90
2018,05,24,12,59,21.00
2018,05,24,13,00,21.00
2018,05,24,13,01,21.10
2018,05,24,13,02,21.20
2018,05,24,13,03,21.30
2018,05,24,13,04,21.40
2018,05,24,13,05,21.60
2018,05,24,13,06,21.60
2018,05,24,13,07,21.60
2018,05,24,13,08,21.60
2018,05,24,13,09,21.60
2018,05,24,13,10,21.60
2018,05,24,13,11,21.50
2018,05,24,13,12,21.40
2018,05,24,13,13,21.40
2018,05,24,13,14,21.40
2018,05,24,13,15,21.40
2018,05,24,13,16,21.50
2018,05,24,13,17,21.50
2018,05,24,13,18,21.50
2018,05,24,13,19,21.60
2018,05,24,13,20,21.60
2018,05,24,13,21,21.60
2018,05,24,13,22,21.60
2018,05,24,13,23,21.70
2018,05,24,13,24,21.70
2018,05,24,13,25,21.60
2018,05,24,13,26,21.60
2018,05,24,13,27,21.60
2018,05,24,13,28,21.60
2018,05,24,13,29,21.60
2018,05,24,13,30,21.60
2018,05,24,13,31,21.50
2018,05,24,13,32,21.40
2018,05,24,13,33,21.30
2018,05,24,13,34,21.30
2018,05,24,13,35,21.30
2018,05,24,13,36,21.20
2018,05,24,13,37,21.30
2018,05,24,13,38,21.30
2018,05,24,13,39,21.30
2018,05,24,13,40,21.30
2018,05,24,13,41,21.30
2018,05,24,13,42,21.30
2018,05,24,13,43,21.40
2018,05,24,13,44,21.40
2018,05,24,13,45,21.40
2018,05,24,13,46,21.50
2018,05,24,13,47,21.50
2018,05,24,13,48,21.60
2018,05,24,13,49,21.70
2018,05,24,13,50,21.70
2018,05,24,13,51,21.80
2018,05,24,13,52,21.80
2018,05,24,13,53,21.80
2018,05,24,13,54,21.80
2018,05,24,13,55,21.80
2018,05,24,13,56,21.80
2018,05,24,13,57,21.80
2018,05,24,13,58,21.80
2018,05,24,13,59,21.80
2018,05,24,14,00,21.70
2018,05,24,14,01,21.70
2018,05,24,14,02,21.70
2018,05,24,14,03,21.70
2018,05,24,14,04,21.70
2018,05,24,14,05,21.80
2018,05,24,14,06,21.80
2018,05,24,14,07,21.80
2018,05,24,14,08,21.90
2018,05,24,14,09,21.90
2018,05,24,14,10,21.90
2018,05,24,14,11,21.90
2018,05,24,14,12,21.90
2018,05,24,14,13,21.90
2018,05,24,14,14,21.90
2018,05,24,14,15,21.90
2018,05,24,14,16,21.90
2018,05,24,14,17,22.00
2018,05,24,14,18,22.00
2018,05,24,14,19,22.00
2018,05,24,14,20,22.10
2018,05,24,14,21,22.20
2018,05,24,14,22,22.20
2018,05,24,14,23,22.20
2018,05,24,14,24,22.20
2018,05,24,14,25,22.20
2018,05,24,14,26,22.30
2018,05,24,14,27,22.30
2018,05,24,14,28,22.30
2018,05,24,14,29,22.30
2018,05,24,14,30,22.30
2018,05,24,14,31,22.30
2018,05,24,14,32,22.20
2018,05,24,14,33,22.20
2018,05,24,14,34,22.10
2018,05,24,14,35,22.10
2018,05,24,14,36,22.10
2018,05,24,14,37,22.10
2018,05,24,14,38,22.20
2018,05,24,14,39,22.20
2018,05,24,14,40,22.20
2018,05,24,14,41,22.20
2018,05,24,14,42,22.20
2018,05,24,14,43,22.10
2018,05,24,14,44,22.10
2018,05,24,14,45,22.10
2018,05,24,14,46,22.10
2018,05,24,14,47,22.10
2018,05,24,14,48,22.20
2018,05,24,14,49,22.20
2018,05,24,14,50,22.20
2018,05,24,14,51,22.20
2018,05,24,14,52,22.30
2018,05,24,14,53,22.40
2018,05,24,14,54,22.40
2018,05,24,14,55,22.50
2018,05,24,14,56,22.60
2018,05,24,14,57,22.60
2018,05,24,14,58,22.60
2018,05,24,14,59,22.50
2018,05,24,15,00,22.50
2018,05,24,15,01,22.60
2018,05,24,15,02,22.60
2018,05,24,15,03,22.70
2018,05,24,15,04,22.70
2018,05,24,15,05,22.70
2018,05,24,15,06,22.70
2018,05,24,15,07,22.70
2018,05,24,15,08,22.70
2018,05,24,15,09,22.70
2018,05,24,15,10,22.70
2018,05,24,15,11,22.70
2018,05,24,15,12,22.80
2018,05,24,15,13,22.80
2018,05,24,15,14,22.80
2018,05,24,15,15,22.80
2018,05,24,15,16,22.90
2018,05,24,15,17,22.90
2018,05,24,15,18,23.00
2018,05,24,15,19,23.00
2018,05,24,15,20,23.10
2018,05,24,15,21,23.20
2018,05,24,15,22,23.20
2018,05,24,15,23,23.20
2018,05,24,15,24,23.20
2018,05,24,15,25,23.10
2018,05,24,15,26,23.10
2018,05,24,15,27,23.00
2018,05,24,15,28,23.00
2018,05,24,15,29,23.00
2018,05,24,15,30,23.00
2018,05,24,15,31,23.00
2018,05,24,15,32,23.10
2018,05,24,15,33,23.00
2018,05,24,15,34,23.00
2018,05,24,15,35,22.90
2018,05,24,15,36,22.90
2018,05,24,15,37,22.80
2018,05,24,15,38,22.70
2018,05,24,15,39,22.60
2018,05,24,15,40,22.50
2018,05,24,15,41,22.50
2018,05,24,15,42,22.40
2018,05,24,15,43,22.40
2018,05,24,15,44,22.30
2018,05,24,15,45,22.30
2018,05,24,15,46,22.30
2018,05,24,15,47,22.40
2018,05,24,15,48,22.40
2018,05,24,15,49,22.40
2018,05,24,15,50,22.30
2018,05,24,15,51,22.30
2018,05,24,15,52,22.30
2018,05,24,15,53,22.30
2018,05,24,15,54,22.30
2018,05,24,15,55,22.30
2018,05,24,15,56,22.40
2018,05,24,15,57,22.40
2018,05,24,15,58,22.40
2018,05,24,15,59,22.40
2018,05,24,16,00,22.50
2018,05,24,16,01,22.60
2018,05,24,16,02,22.60
2018,05,24,16,03,22.70
2018,05,24,16,04,22.70
2018,05,24,16,05,22.80
2018,05,24,16,06,22.80
2018,05,24,16,07,22.80
2018,05,24,16,08,22.80
2018,05,24,16,09,22.80
2018,05,24,16,10,22.70
2018,05,24,16,11,22.70
2018,05,24,16,12,22.60
2018,05,24,16,13,22.60
2018,05,24,16,14,22.50
2018,05,24,16,15,22.60
2018,05,24,16,16,22.60
2018,05,24,16,17,22.60
2018,05,24,16,18,22.60
2018,05,24,16,19,22.60
2018,05,24,16,20,22.70
2018,05,24,16,21,22.70
2018,05,24,16,22,22.70
2018,05,24,16,23,22.60
2018,05,24,16,24,22.50
2018,05,24,16,25,22.50
2018,05,24,16,26,22.50
2018,05,24,16,27,22.50
2018,05,24,16,28,22.50
2018,05,24,16,29,22.50
2018,05,24,16,30,22.60
2018,05,24,16,31,22.70
2018,05,24,16,32,22.70
2018,05,24,16,33,22.80
2018,05,24,16,34,22.90
2018,05,24,16,35,22.90
2018,05,24,16,36,23.00
2018,05,24,16,37,23.10
2018,05,24,16,38,23.10
2018,05,24,16,39,23.10
2018,05,24,16,40,23.20
2018,05,24,16,41,23.20
2018,05,24,16,42,23.30
2018,05,24,16,43,23.30
2018,05,24,16,44,23.30
2018,05,24,16,45,23.30
2018,05,24,16,46,23.30
2018,05,24,16,47,23.30
2018,05,24,16,48,23.20
2018,05,24,16,49,23.20
2018,05,24,16,50,23.20
2018,05,24,16,51,23.20
2018,05,24,16,52,23.10
2018,05,24,16,53,23.00
2018,05,24,16,54,22.90
2018,05,24,16,55,22.90
2018,05,24,16,56,22.80
2018,05,24,16,57,22.80
2018,05,24,16,58,22.80
2018,05,24,16,59,22.70
2018,05,24,17,00,22.70
2018,05,24,17,01,22.70
2018,05,24,17,02,22.60
2018,05,24,17,03,22.60
2018,05,24,17,04,22.60
2018,05,24,17,05,22.50
2018,05,24,17,06,22.50
2018,05,24,17,07,22.50
2018,05,24,17,08,22.50
2018,05,24,17,09,22.50
2018,05,24,17,10,22.50
2018,05,24,17,11,22.50
2018,05,24,17,12,22.50
2018,05,24,17,13,22.40
2018,05,24,17,14,22.40
2018,05,24,17,15,22.30
2018,05,24,17,16,22.20
2018,05,24,17,17,22.10
2018,05,24,17,18,21.90
2018,05,24,17,19,21.70